Time,TemperatureF,DewpointF,PressureIn,WindDirection,WindDirectionDegrees,WindSpeedMPH,WindSpeedGustMPH,Humidity,HourlyPrecipIn,Conditions,Clouds,dailyrainin,SoftwareType,DateUTC
2013-02-14 00:11:00,32.7,32.0,29.70,NE,46,0.0,3.0,95,0.00,,,0.00,weatherlink.com 1.10,2013-02-14 05:11:00,
2013-02-14 00:26:00,32.7,32.0,29.70,NE,46,0.0,1.0,95,0.00,,,0.00,weatherlink.com 1.10,2013-02-14 05:26:00,
2013-02-14 00:41:00,32.6,31.0,29.70,NE,51,0.0,3.0,95,0.00,,,0.00,weatherlink.com 1.10,2013-02-14 05:41:00,
2013-02-14 00:56:00,32.6,31.0,29.71,NE,51,0.0,1.0,95,0.00,,,0.00,weatherlink.com 1.10,2013-02-14 05:56:00,
2013-02-14 01:11:00,32.5,32.0,29.70,ENE,65,0.0,2.0,96,0.00,,,0.00,weatherlink.com 1.10,2013-02-14 06:11:00,
2013-02-14 01:26:00,32.4,31.0,29.71,ENE,65,0.0,1.0,95,0.00,,,0.00,weatherlink.com 1.10,2013-02-14 06:26:00,
2013-02-14 01:41:00,32.3,31.0,29.71,ENE,65,0.0,1.0,95,0.00,,,0.00,weatherlink.com 1.10,2013-02-14 06:41:00,
2013-02-14 01:56:00,32.2,31.0,29.73,ENE,65,0.0,1.0,95,0.00,,,0.00,weatherlink.com 1.10,2013-02-14 06:56:00,
2013-02-14 02:11:00,32.2,31.0,29.73,ENE,65,0.0,1.0,95,0.00,,,0.00,weatherlink.com 1.10,2013-02-14 07:11:00,
2013-02-14 02:26:00,32.2,31.0,29.74,ENE,65,0.0,1.0,95,0.00,,,0.00,weatherlink.com 1.10,2013-02-14 07:26:00,
2013-02-14 02:41:00,32.2,31.0,29.75,ENE,65,0.0,1.0,95,0.00,,,0.00,weatherlink.com 1.10,2013-02-14 07:41:00,
2013-02-14 02:56:00,32.1,31.0,29.75,ENE,65,0.0,1.0,95,0.00,,,0.00,weatherlink.com 1.10,2013-02-14 07:56:00,
2013-02-14 03:11:00,32.1,31.0,29.76,ENE,65,0.0,0.0,95,0.00,,,0.00,weatherlink.com 1.10,2013-02-14 08:11:00,
2013-02-14 03:26:00,32.0,31.0,29.77,ENE,65,0.0,1.0,95,0.00,,,0.00,weatherlink.com 1.10,2013-02-14 08:26:00,
2013-02-14 03:41:00,32.0,31.0,29.77,ENE,65,0.0,0.0,95,0.00,,,0.00,weatherlink.com 1.10,2013-02-14 08:41:00,
2013-02-14 03:56:00,31.9,31.0,29.77,ENE,65,0.0,0.0,95,0.00,,,0.00,weatherlink.com 1.10,2013-02-14 08:56:00,
2013-02-14 04:11:00,31.5,30.0,29.77,ENE,65,0.0,0.0,95,0.00,,,0.00,weatherlink.com 1.10,2013-02-14 09:11:00,
2013-02-14 04:26:00,31.1,30.0,29.78,ENE,65,0.0,0.0,95,0.00,,,0.00,weatherlink.com 1.10,2013-02-14 09:26:00,
2013-02-14 04:41:00,30.7,29.0,29.78,ENE,65,0.0,0.0,94,0.00,,,0.00,weatherlink.com 1.10,2013-02-14 09:41:00,
2013-02-14 04:56:00,30.3,29.0,29.79,ENE,65,0.0,0.0,95,0.00,,,0.00,weatherlink.com 1.10,2013-02-14 09:56:00,
2013-02-14 05:11:00,29.9,29.0,29.81,ENE,65,0.0,0.0,95,0.00,,,0.00,weatherlink.com 1.10,2013-02-14 10:11:00,
2013-02-14 05:26:00,29.5,28.0,29.80,ENE,65,0.0,0.0,95,0.00,,,0.00,weatherlink.com 1.10,2013-02-14 10:26:00,
2013-02-14 05:41:00,29.1,28.0,29.81,ENE,65,0.0,0.0,95,0.00,,,0.00,weatherlink.com 1.10,2013-02-14 10:41:00,
2013-02-14 05:56:00,28.6,27.0,29.81,ENE,65,0.0,0.0,95,0.00,,,0.00,weatherlink.com 1.10,2013-02-14 10:56:00,
2013-02-14 06:11:00,28.4,27.0,29.82,ENE,65,0.0,0.0,95,0.00,,,0.00,weatherlink.com 1.10,2013-02-14 11:11:00,
2013-02-14 06:26:00,28.1,27.0,29.82,ENE,65,0.0,0.0,94,0.00,,,0.00,weatherlink.com 1.10,2013-02-14 11:26:00,
2013-02-14 06:41:00,27.9,26.0,29.84,ENE,65,0.0,0.0,94,0.00,,,0.00,weatherlink.com 1.10,2013-02-14 11:41:00,
2013-02-14 06:57:00,27.8,27.0,29.85,ENE,65,0.0,0.0,95,0.00,,,0.00,weatherlink.com 1.10,2013-02-14 11:57:00,
2013-02-14 07:12:00,27.9,26.0,29.86,ENE,65,0.0,0.0,94,0.00,,,0.00,weatherlink.com 1.10,2013-02-14 12:12:00,
2013-02-14 07:27:00,28.0,27.0,29.87,ENE,65,0.0,0.0,95,0.00,,,0.00,weatherlink.com 1.10,2013-02-14 12:27:00,
2013-02-14 07:42:00,28.6,27.0,29.88,ENE,65,0.0,0.0,95,0.00,,,0.00,weatherlink.com 1.10,2013-02-14 12:42:00,
2013-02-14 07:57:00,29.3,28.0,29.89,ENE,65,0.0,0.0,95,0.00,,,0.00,weatherlink.com 1.10,2013-02-14 12:57:00,
2013-02-14 08:12:00,30.0,29.0,29.90,ENE,64,0.0,1.0,95,0.00,,,0.00,weatherlink.com 1.10,2013-02-14 13:12:00,
2013-02-14 08:27:00,30.6,29.0,29.90,ENE,64,0.0,1.0,95,0.00,,,0.00,weatherlink.com 1.10,2013-02-14 13:27:00,
2013-02-14 08:42:00,31.3,30.0,29.91,ENE,65,0.0,0.0,95,0.01,,,0.01,weatherlink.com 1.10,2013-02-14 13:42:00,
2013-02-14 08:57:00,32.3,31.0,29.92,ENE,67,0.0,2.0,94,0.01,,,0.01,weatherlink.com 1.10,2013-02-14 13:57:00,
2013-02-14 09:12:00,33.1,31.0,29.92,NW,322,0.0,6.0,93,0.03,,,0.03,weatherlink.com 1.10,2013-02-14 14:12:00,
2013-02-14 09:27:00,33.8,32.0,29.92,WNW,285,0.0,5.0,92,0.04,,,0.04,weatherlink.com 1.10,2013-02-14 14:27:00,
2013-02-14 09:42:00,34.4,32.0,29.92,NW,304,0.0,5.0,90,0.03,,,0.04,weatherlink.com 1.10,2013-02-14 14:42:00,
2013-02-14 09:57:00,34.9,32.0,29.93,WNW,285,0.0,5.0,89,0.04,,,0.05,weatherlink.com 1.10,2013-02-14 14:57:00,
2013-02-14 10:12:00,35.6,32.0,29.94,WNW,298,0.0,7.0,85,0.02,,,0.05,weatherlink.com 1.10,2013-02-14 15:12:00,
2013-02-14 10:27:00,36.0,30.0,29.94,NW,313,0.0,4.0,80,0.02,,,0.06,weatherlink.com 1.10,2013-02-14 15:27:00,
2013-02-14 10:42:00,37.1,32.0,29.93,NW,309,0.0,2.0,82,0.02,,,0.06,weatherlink.com 1.10,2013-02-14 15:42:00,
2013-02-14 10:57:00,37.9,31.0,29.93,NW,309,0.0,3.0,76,0.02,,,0.07,weatherlink.com 1.10,2013-02-14 15:57:00,
2013-02-14 11:12:00,38.0,30.0,29.93,WSW,257,0.0,5.0,73,0.02,,,0.07,weatherlink.com 1.10,2013-02-14 16:12:00,
2013-02-14 11:27:00,38.7,31.0,29.93,WSW,252,0.0,5.0,73,0.01,,,0.07,weatherlink.com 1.10,2013-02-14 16:27:00,
2013-02-14 11:42:00,39.2,30.0,29.93,WSW,252,2.0,4.0,69,0.01,,,0.07,weatherlink.com 1.10,2013-02-14 16:42:00,
2013-02-14 11:57:00,39.7,30.0,29.93,WNW,294,0.0,4.0,68,0.00,,,0.07,weatherlink.com 1.10,2013-02-14 16:57:00,
2013-02-14 12:12:00,40.1,29.0,29.93,SW,236,3.0,5.0,66,0.00,,,0.07,weatherlink.com 1.10,2013-02-14 17:12:00,
2013-02-14 12:27:00,40.6,30.0,29.91,NW,305,0.0,7.0,65,0.00,,,0.07,weatherlink.com 1.10,2013-02-14 17:27:00,
2013-02-14 12:42:00,40.3,28.0,29.91,West,281,0.0,6.0,63,0.00,,,0.07,weatherlink.com 1.10,2013-02-14 17:42:00,
2013-02-14 12:57:00,41.1,27.0,29.91,SSW,213,0.0,6.0,58,0.00,,,0.07,weatherlink.com 1.10,2013-02-14 17:57:00,
2013-02-14 13:12:00,41.7,29.0,29.90,WSW,237,2.0,4.0,60,0.00,,,0.07,weatherlink.com 1.10,2013-02-14 18:12:00,
2013-02-14 13:27:00,42.2,29.0,29.91,West,268,2.0,7.0,61,0.00,,,0.07,weatherlink.com 1.10,2013-02-14 18:27:00,
2013-02-14 13:43:00,42.3,29.0,29.91,WSW,246,0.0,5.0,59,0.00,,,0.07,weatherlink.com 1.10,2013-02-14 18:43:00,
2013-02-14 13:58:00,43.2,28.0,29.90,WSW,248,1.0,2.0,56,0.00,,,0.07,weatherlink.com 1.10,2013-02-14 18:58:00,
2013-02-14 14:13:00,42.9,28.0,29.91,SSW,211,1.0,7.0,56,0.00,,,0.07,weatherlink.com 1.10,2013-02-14 19:13:00,
2013-02-14 14:28:00,44.0,28.0,29.91,SW,232,1.0,6.0,54,0.00,,,0.07,weatherlink.com 1.10,2013-02-14 19:28:00,
2013-02-14 14:43:00,44.8,28.0,29.92,SSW,211,2.0,6.0,52,0.00,,,0.07,weatherlink.com 1.10,2013-02-14 19:43:00,
2013-02-14 14:58:00,44.5,28.0,29.91,WSW,237,0.0,5.0,53,0.00,,,0.07,weatherlink.com 1.10,2013-02-14 19:58:00,
2013-02-14 15:13:00,44.8,27.0,29.92,West,264,3.0,8.0,51,0.00,,,0.07,weatherlink.com 1.10,2013-02-14 20:13:00,
2013-02-14 15:28:00,44.7,28.0,29.92,SW,233,3.0,7.0,52,0.00,,,0.07,weatherlink.com 1.10,2013-02-14 20:28:00,
2013-02-14 15:43:00,44.5,28.0,29.92,South,189,3.0,6.0,52,0.00,,,0.07,weatherlink.com 1.10,2013-02-14 20:43:00,
2013-02-14 15:58:00,44.5,28.0,29.92,WNW,295,1.0,5.0,52,0.00,,,0.07,weatherlink.com 1.10,2013-02-14 20:58:00,
2013-02-14 16:13:00,44.4,28.0,29.92,WSW,240,0.0,4.0,52,0.00,,,0.07,weatherlink.com 1.10,2013-02-14 21:13:00,
2013-02-14 16:28:00,43.7,27.0,29.92,SSW,204,0.0,7.0,52,0.00,,,0.07,weatherlink.com 1.10,2013-02-14 21:28:00,
2013-02-14 16:43:00,43.3,27.0,29.93,SW,216,0.0,4.0,52,0.00,,,0.07,weatherlink.com 1.10,2013-02-14 21:43:00,
2013-02-14 16:58:00,42.8,27.0,29.94,SW,217,1.0,4.0,54,0.00,,,0.07,weatherlink.com 1.10,2013-02-14 21:58:00,
2013-02-14 17:13:00,42.4,27.0,29.94,SW,217,0.0,3.0,55,0.00,,,0.07,weatherlink.com 1.10,2013-02-14 22:13:00,
2013-02-14 17:28:00,42.2,27.0,29.94,SW,217,0.0,3.0,56,0.00,,,0.07,weatherlink.com 1.10,2013-02-14 22:28:00,
2013-02-14 17:43:00,41.7,27.0,29.94,SW,217,2.0,3.0,57,0.00,,,0.07,weatherlink.com 1.10,2013-02-14 22:43:00,
2013-02-14 17:58:00,41.3,28.0,29.94,SW,217,0.0,1.0,59,0.00,,,0.07,weatherlink.com 1.10,2013-02-14 22:58:00,
2013-02-14 18:13:00,40.8,28.0,29.95,SW,217,0.0,2.0,61,0.00,,,0.07,weatherlink.com 1.10,2013-02-14 23:13:00,
2013-02-14 18:28:00,40.5,28.0,29.95,SW,217,0.0,1.0,62,0.00,,,0.07,weatherlink.com 1.10,2013-02-14 23:28:00,
2013-02-14 18:43:00,40.2,29.0,29.94,SW,217,0.0,2.0,64,0.00,,,0.07,weatherlink.com 1.10,2013-02-14 23:43:00,
2013-02-14 18:58:00,39.9,29.0,29.95,SW,217,0.0,2.0,65,0.00,,,0.07,weatherlink.com 1.10,2013-02-14 23:58:00,
2013-02-14 19:13:00,39.6,29.0,29.96,SW,217,0.0,3.0,65,0.00,,,0.07,weatherlink.com 1.10,2013-02-15 00:13:00,
2013-02-14 19:28:00,39.1,29.0,29.96,SW,217,0.0,1.0,66,0.00,,,0.07,weatherlink.com 1.10,2013-02-15 00:28:00,
2013-02-14 19:43:00,38.4,28.0,29.96,SW,217,0.0,0.0,67,0.00,,,0.07,weatherlink.com 1.10,2013-02-15 00:43:00,
2013-02-14 19:58:00,37.8,28.0,29.96,SW,217,0.0,0.0,68,0.00,,,0.07,weatherlink.com 1.10,2013-02-15 00:58:00,
2013-02-14 20:13:00,37.4,28.0,29.96,SW,217,0.0,1.0,69,0.00,,,0.07,weatherlink.com 1.10,2013-02-15 01:13:00,
2013-02-14 20:28:00,37.3,28.0,29.96,SW,217,0.0,1.0,69,0.00,,,0.07,weatherlink.com 1.10,2013-02-15 01:28:00,
2013-02-14 20:43:00,37.6,28.0,29.97,SW,217,0.0,1.0,69,0.00,,,0.07,weatherlink.com 1.10,2013-02-15 01:43:00,
2013-02-14 20:58:00,37.5,28.0,29.97,SW,217,0.0,0.0,69,0.00,,,0.07,weatherlink.com 1.10,2013-02-15 01:58:00,
2013-02-14 21:13:00,37.2,28.0,29.97,SW,217,0.0,0.0,70,0.00,,,0.07,weatherlink.com 1.10,2013-02-15 02:13:00,
2013-02-14 21:28:00,37.1,28.0,29.97,SW,217,0.0,0.0,71,0.00,,,0.07,weatherlink.com 1.10,2013-02-15 02:28:00,
2013-02-14 21:43:00,37.0,29.0,29.97,SW,217,0.0,0.0,73,0.00,,,0.07,weatherlink.com 1.10,2013-02-15 02:43:00,
2013-02-14 21:58:00,36.7,29.0,29.97,SW,217,0.0,0.0,75,0.00,,,0.07,weatherlink.com 1.10,2013-02-15 02:58:00,
2013-02-14 22:13:00,36.4,29.0,29.97,SW,217,0.0,0.0,75,0.00,,,0.07,weatherlink.com 1.10,2013-02-15 03:13:00,
2013-02-14 22:28:00,35.8,29.0,29.97,SW,217,0.0,0.0,76,0.00,,,0.07,weatherlink.com 1.10,2013-02-15 03:28:00,
2013-02-14 22:43:00,35.1,29.0,29.98,SW,217,0.0,0.0,78,0.00,,,0.07,weatherlink.com 1.10,2013-02-15 03:43:00,
2013-02-14 22:58:00,34.4,29.0,29.97,SW,217,0.0,1.0,80,0.00,,,0.07,weatherlink.com 1.10,2013-02-15 03:58:00,
2013-02-14 23:13:00,34.1,29.0,29.98,SW,217,0.0,0.0,81,0.00,,,0.07,weatherlink.com 1.10,2013-02-15 04:13:00,
2013-02-14 23:28:00,33.9,29.0,29.98,SW,217,0.0,0.0,82,0.00,,,0.07,weatherlink.com 1.10,2013-02-15 04:28:00,
2013-02-14 23:43:00,33.6,29.0,29.97,SW,217,0.0,0.0,84,0.00,,,0.07,weatherlink.com 1.10,2013-02-15 04:43:00,
2013-02-14 23:58:00,33.3,29.0,29.97,SW,217,0.0,0.0,84,0.00,,,0.07,weatherlink.com 1.10,2013-02-15 04:58:00,